This is the latest recevied weather packets stored in our database for station/object WB4MOZ-3. If no packets are shown the sender has not sent any weather packets the latest 10 day(s).
| Time | Temp. | Humidity | Pressure | Rain* | Wind** | Luminosity | Snow |
|---|---|---|---|---|---|---|---|
| 1777660664 | 34.44° C | 34% | 1010 hPa | 0 mm | - | - | - |
| 1777660064 | 35° C | 37% | 1010.1 hPa | 0 mm | - | - | - |
| 1777659764 | 34.44° C | 36% | 1010.2 hPa | 0 mm | - | - | - |
| 1777659464 | 34.44° C | 35% | 1010.2 hPa | 0 mm | - | - | - |
| 1777658864 | 33.89° C | 40% | 1010.4 hPa | 0 mm | - | - | - |
| 1777658564 | 33.89° C | 38% | 1010.3 hPa | 0 mm | - | - | - |
| 1777658264 | 34.44° C | 38% | 1010.2 hPa | 0 mm | - | - | - |
| 1777657964 | 34.44° C | 40% | 1010.3 hPa | 0 mm | - | - | - |
| 1777657364 | 34.44° C | 42% | 1010.4 hPa | 0 mm | - | - | - |
| 1777657064 | 34.44° C | 44% | 1010.5 hPa | 0 mm | - | - | - |
| 1777656164 | 34.44° C | 42% | 1010.5 hPa | 0 mm | - | - | - |
| 1777655864 | 34.44° C | 43% | 1010.5 hPa | 0 mm | - | - | - |
| 1777655565 | 34.44° C | 42% | 1010.6 hPa | 0 mm | - | - | - |
| 1777655264 | 34.44° C | 43% | 1010.6 hPa | 0 mm | - | - | - |
| 1777654964 | 33.89° C | 45% | 1010.7 hPa | 0 mm | - | - | - |
| 1777654664 | 33.33° C | 47% | 1010.7 hPa | 0 mm | - | - | - |
| 1777654364 | 33.33° C | 48% | 1010.8 hPa | 0 mm | - | - | - |
| 1777654064 | 32.78° C | 49% | 1010.8 hPa | 0 mm | - | - | - |
| 1777653764 | 33.33° C | 46% | 1010.9 hPa | 0 mm | - | - | - |
| 1777653464 | 33.33° C | 49% | 1011 hPa | 0 mm | - | - | - |
| 1777653164 | 33.33° C | 47% | 1011.1 hPa | 0 mm | - | - | - |
| 1777652864 | 33.33° C | 48% | 1011 hPa | 0 mm | - | - | - |
| 1777652563 | 33.33° C | 49% | 1011.1 hPa | 0 mm | - | - | - |
| 1777652263 | 33.33° C | 47% | 1011.2 hPa | 0 mm | - | - | - |
| 1777651964 | 33.33° C | 50% | 1011.4 hPa | 0 mm | - | - | - |
* Rain latest hour (hover to see other rain measurements)
** Current wind speed in m/s (hover to see current wind gust speed)